Погода в Кумбране

Великобритания     51°39′27″N   3°01′32″W
темп.,
°C
ветер,
м/с
пор.,
м/с
влажн.,
%
обл.,
%
осадки,
мм/ч
давл.,
гПа
погр.,
м
17 сентября, пт
пт1701:00+11юз119296 0.0 101611
04:00+11ююз2296100 0.0 101421
07:00+11ю2299100 0.0 101356
10:00+14ю4788100 0.0 1013511
13:00+18ю676783 0.0 10121039
16:00+18ю5762100 0.0 10111008
19:00+14ююз238190 0.0 101243
22:00+11ююз118844 0.0 101310
18 сентября, сб
сб1801:00+11юз119138 0.0 101310
04:00+10ссв11906 0.0 101311
07:00+11св118893 0.0 101311
10:00+16юв237318 0.0 1013322
13:00+19ю34649 0.0 1013874
16:00+20ююз246363 0.1 1012895
19:00+15ююз228910 0.5 101230
22:00+13юз11946 0.0 101313
19 сентября, вс
вс1901:00+12зсз1195100 0.0 101313
04:00+13сз1195100 0.1 101318
07:00+13зсз1193100 0.1 101420
10:00+14зсз1181100 0.0 1015249
13:00+18сз1157100 0.0 10151067
16:00+18ссз2253100 0.0 10151329
19:00+14с117399 0.0 101611
22:00+11ссв339361 0.0 101835
20 сентября, пн
пн2001:00+11ссз34955 0.0 101961
04:00+10с349182 0.0 102068
07:00+12с2585100 0.0 1021133
10:00+14с467648 0.0 1023509
13:00+17ссв456583 0.0 10231177
16:00+17св3470100 0.0 1024672
19:00+15всв128097 0.1 102534
22:00+12ссв22900 0.0 102717
21 сентября, вт
вт2101:00+10с339159 0.0 102830
04:00+9ссз228697 0.0 102813
07:00+8сз0086100 0.0 102810
10:00+14ю117249 0.0 1028259
13:00+18ююз446393 0.0 10261132
16:00+18юз5561100 0.0 10251071
19:00+13зюз228190 0.0 102526
22:00+10юз2293100 0.0 102421